This is the latest recevied weather packets stored in our database for station/object K1ADM. If no packets are shown the sender has not sent any weather packets the latest 10 day(s).
| Time | Temp. | Humidity | Pressure | Rain* | Wind** | Luminosity | Snow |
|---|---|---|---|---|---|---|---|
| 1777429504 | 8.33° C | 49% | 1019.9 hPa | 0 mm | - | - | - |
| 1777428604 | 8.89° C | 49% | 1020 hPa | 0 mm | - | - | - |
| 1777423802 | 9.44° C | 50% | 1020.1 hPa | 0 mm | - | - | - |
| 1777422902 | 10° C | 49% | 1020.2 hPa | 0 mm | - | - | - |
| 1777418702 | 11.67° C | 42% | 1020.5 hPa | 0 mm | - | - | - |
| 1777416602 | 12.78° C | 23% | 1020.3 hPa | 0 mm | - | - | - |
| 1777415702 | 13.33° C | 22% | 1020.2 hPa | 0 mm | - | - | - |
| 1777414802 | 14.44° C | 25% | 1020.3 hPa | 0 mm | - | - | - |
| 1777413902 | 15° C | 25% | 1020.2 hPa | 0 mm | - | - | - |
| 1777403702 | 18.89° C | 36% | 1020.4 hPa | 0 mm | - | - | - |
| 1777403402 | 18.89° C | 38% | 1020.3 hPa | 0 mm | - | - | - |
| 1777403102 | 18.89° C | 37% | 1020.3 hPa | 0 mm | - | - | - |
| 1777402802 | 18.89° C | 37% | 1020.4 hPa | 0 mm | - | - | - |
| 1777401602 | 18.89° C | 38% | 1020.5 hPa | 0 mm | - | - | - |
| 1777399202 | 20° C | 37% | 1021.1 hPa | 0 mm | - | - | - |
| 1777395002 | 19.44° C | 38% | 1021.6 hPa | 0 mm | - | - | - |
| 1777390502 | 17.78° C | 47% | 1022.4 hPa | 0 mm | - | - | - |
| 1777389303 | 17.22° C | 49% | 1022.4 hPa | 0 mm | - | - | - |
| 1777385402 | 13.89° C | 55% | 1023.1 hPa | 0 mm | - | - | - |
| 1777382703 | 11.67° C | 61% | 1023.5 hPa | 0 mm | - | - | - |
| 1777377303 | 8.89° C | 69% | 1023.8 hPa | 0 mm | - | - | - |
| 1777373403 | 5.56° C | 82% | 1023.6 hPa | 0 mm | - | - | - |
| 1777372203 | 3.89° C | 86% | 1023.5 hPa | 0 mm | - | - | - |
| 1777369203 | 3.33° C | 85% | 1024 hPa | 0 mm | - | - | - |
| 1777368003 | 3.89° C | 85% | 1023.9 hPa | 0 mm | - | - | - |
* Rain latest hour (hover to see other rain measurements)
** Current wind speed in m/s (hover to see current wind gust speed)